Location: Franklinton
(36.1018°N, 78.4581°W)
Time: 00:04:56
(UTC-04:00)

ISS - Visible Passes

Search period start: 26 April 2019 00:00
Search period end: 06 May 2019 00:00
Orbit: 408 x 410 km, 51.6° (Epoch: 26 April)

Date Brightness Start Highest point End Pass type
(mag) Time Alt. Az. Time Alt. Az. Time Alt. Az.
26 Apr -1.8 05:40:25 10° S 05:43:10 24° SE 05:45:56 10° ENE visible
27 Apr -1.1 04:51:02 10° SSE 04:52:33 13° SE 04:54:03 10° E visible
28 Apr -3.7 05:35:09 13° SW 05:37:57 77° SE 05:41:15 10° NE visible
29 Apr -2.7 04:46:30 31° SSE 04:47:12 35° SE 04:50:16 10° ENE visible
30 Apr -1.1 03:57:46 15° E 03:57:46 15° E 03:58:51 10° E visible
30 Apr -2.9 05:30:31 15° W 05:32:52 37° NW 05:35:59 10° NNE visible
01 May -3.9 04:41:42 67° W 04:41:59 73° NW 04:45:17 10° NE visible
02 May -1.6 03:52:48 25° ENE 03:52:48 25° ENE 03:54:23 10° ENE visible
02 May -1.6 05:25:36 10° WNW 05:27:56 18° NNW 05:30:17 10° NNE visible
03 May -2.4 04:36:34 27° NW 04:36:53 28° NNW 04:39:48 10° NNE visible
04 May -1.5 03:47:31 25° NNE 03:47:31 25° NNE 03:49:09 10° NE visible
04 May -1.0 05:22:44 10° NNW 05:23:08 10° NNW 05:23:31 10° NNW visible
05 May -1.4 04:31:09 14° NW 04:31:56 14° NNW 04:33:52 10° N visible
